Weather History for Clarinda, IA

Change the Weather History Date:

Monday, January 6, 2014

  Actual Average Record
Temperature  
Mean Temperature -5 °F -  
Max Temperature 1 °F 33 °F 55 °F (2012)
Min Temperature -11 °F 14 °F -11 °F (2014)
Degree Days  
Heating Degree Days 70    
Moisture  
Dew Point -16 °F    
Average Humidity 63    
Maximum Humidity 84    
Minimum Humidity 54    
Precipitation  
Precipitation 0.00 in - - ()
Sea Level Pressure  
Sea Level Pressure 30.47 in    
Wind  
Wind Speed 12 mph (WNW)    
Max Wind Speed 23 mph    
Max Gust Speed 30 mph    
Visibility 10 miles    
Events      
Averages and records for this station are not official NWS values.
T = Trace of Precipitation, MM = Missing Value Source: NWS Daily Summary

Daily Weather History Graph

Daily Weather History Graph

Search for Another Location

Airport:

Trip Planner

Search our weather history database for the weather conditions in past years. The results will help you decide how hot, cold, wet, or windy it might be!

Date:

Astronomy

Jan. 06, 2014 Rise Set
Actual Time 7:44 AM CST 5:08 PM CST
Civil Twilight 7:13 AM CST 5:38 PM CST
Nautical Twilight 6:39 AM CST 6:12 PM CST
Astronomical Twilight 6:06 AM CST 6:45 PM CST
Moon 10:58 AM CST (1/6) 11:44 PM CST (1/6)
Length of Visible Light 10h 25m
Length of Day
9h 23m
Waxing Crescent, 35% of the Moon is Illuminated
Jan 6
Waxing Crescent
Jan 7
First Quarter
Jan 15
Full
Jan 23
Last Quarter
Jan 30
New

Hourly Weather History & Observations

Time (CST) Temp. Windchill Dew Point Humidity Pressure Visibility Wind Dir Wind Speed Gust Speed Precip Events Conditions
12:15 AM -7.6 °F -28.3 °F -18.4 °F 59% 30.52 in 10.0 mi NW 13.8 mph 20.7 mph N/A   Overcast
12:35 AM -7.6 °F -31.1 °F -20.2 °F 54% 30.51 in 10.0 mi NW 18.4 mph 25.3 mph N/A   Scattered Clouds
12:55 AM -7.6 °F -30.5 °F -20.2 °F 54% 30.51 in 10.0 mi NW 17.3 mph 27.6 mph N/A   Clear
1:15 AM -9.4 °F -32.8 °F -20.2 °F 59% 30.51 in 10.0 mi NW 17.3 mph 25.3 mph N/A   Clear
1:35 AM -9.4 °F -30.6 °F -20.2 °F 59% 30.51 in 10.0 mi NW 13.8 mph 20.7 mph N/A   Clear
1:55 AM -9.4 °F -31.4 °F -20.2 °F 59% 30.50 in 10.0 mi NW 15.0 mph - N/A   Clear
2:15 AM -9.4 °F - -20.2 °F 59% 30.50 in 10.0 mi North - - N/A   Clear
2:35 AM -9.4 °F -27.9 °F -20.2 °F 59% 30.50 in 10.0 mi WNW 10.4 mph - N/A   Clear
3:15 AM -9.4 °F -30.6 °F -20.2 °F 59% 30.50 in 10.0 mi NW 13.8 mph - N/A   Clear
3:35 AM -9.4 °F -31.4 °F -20.2 °F 59% 30.50 in - NW 15.0 mph 24.2 mph N/A   Clear
3:55 AM -9.4 °F -30.6 °F -20.2 °F 59% 30.50 in 10.0 mi NW 13.8 mph 21.9 mph N/A   Clear
4:15 AM -9.4 °F -30.6 °F -20.2 °F 59% 30.50 in 10.0 mi NW 13.8 mph 21.9 mph N/A   Clear
4:35 AM -9.4 °F -31.4 °F -20.2 °F 59% 30.49 in 10.0 mi NW 15.0 mph 23.0 mph N/A   Clear
4:55 AM -9.4 °F -29.8 °F -20.2 °F 59% 30.49 in 10.0 mi NW 12.7 mph - N/A   Scattered Clouds
5:15 AM -9.4 °F -32.1 °F -20.2 °F 59% 30.49 in 10.0 mi NW 16.1 mph 21.9 mph N/A   Scattered Clouds
5:35 AM -9.4 °F -30.6 °F -20.2 °F 59% 30.49 in 10.0 mi NW 13.8 mph 20.7 mph N/A   Partly Cloudy
5:55 AM -9.4 °F -28.9 °F -20.2 °F 59% 30.49 in 10.0 mi NW 11.5 mph 18.4 mph N/A   Clear
6:15 AM -9.4 °F -27.9 °F -20.2 °F 59% 30.49 in 10.0 mi WNW 10.4 mph 17.3 mph N/A   Clear
6:35 AM -9.4 °F -26.8 °F -20.2 °F 59% 30.50 in 10.0 mi NW 9.2 mph 16.1 mph N/A   Mostly Cloudy
6:55 AM -9.4 °F -30.6 °F -20.2 °F 59% 30.50 in 10.0 mi NW 13.8 mph - N/A   Mostly Cloudy
7:15 AM -9.4 °F -27.9 °F -20.2 °F 59% 30.50 in 10.0 mi NW 10.4 mph - N/A   Mostly Cloudy
7:35 AM -9.4 °F -31.4 °F -20.2 °F 59% 30.51 in 10.0 mi NW 15.0 mph 21.9 mph N/A   Overcast
7:55 AM -9.4 °F -30.6 °F -20.2 °F 59% 30.51 in 10.0 mi NW 13.8 mph 21.9 mph N/A   Scattered Clouds
8:15 AM -9.4 °F -29.8 °F -18.4 °F 65% 30.51 in 10.0 mi NW 12.7 mph 20.7 mph N/A   Clear
8:35 AM -9.4 °F -28.9 °F -18.4 °F 65% 30.52 in 10.0 mi NW 11.5 mph - N/A   Clear
8:55 AM -9.4 °F -30.6 °F -18.4 °F 65% 30.52 in 10.0 mi NW 13.8 mph 20.7 mph N/A   Clear
9:15 AM -9.4 °F -31.4 °F -18.4 °F 65% 30.53 in 10.0 mi NW 15.0 mph 24.2 mph N/A   Clear
9:35 AM -7.6 °F -30.5 °F -18.4 °F 59% 30.53 in 10.0 mi NW 17.3 mph 29.9 mph N/A   Clear
9:55 AM -7.6 °F -28.3 °F -18.4 °F 59% 30.54 in 10.0 mi NW 13.8 mph 25.3 mph N/A   Clear
10:15 AM -7.6 °F -31.1 °F -18.4 °F 59% 30.52 in 10.0 mi WNW 18.4 mph 26.5 mph N/A   Clear
10:35 AM -5.8 °F -28.2 °F -18.4 °F 55% 30.53 in 10.0 mi NW 17.3 mph 23.0 mph N/A   Clear
10:55 AM -5.8 °F -28.8 °F -18.4 °F 55% 30.52 in 10.0 mi NW 18.4 mph 27.6 mph N/A   Clear
11:15 AM -5.8 °F -28.8 °F -16.6 °F 60% 30.52 in 10.0 mi NW 18.4 mph 26.5 mph N/A   Partly Cloudy
11:35 AM -4.0 °F -25.2 °F -16.6 °F 55% 30.51 in 10.0 mi NW 16.1 mph - N/A   Scattered Clouds
11:55 AM -4.0 °F -24.5 °F -14.8 °F 60% 30.50 in 10.0 mi NW 15.0 mph 25.3 mph N/A   Scattered Clouds
12:15 PM -4.0 °F -28.6 °F -14.8 °F 60% 30.50 in 10.0 mi NW 23.0 mph 28.8 mph N/A   Scattered Clouds
12:35 PM -2.2 °F -24.7 °F -14.8 °F 55% 30.48 in 10.0 mi WNW 19.6 mph 26.5 mph N/A   Scattered Clouds
12:55 PM -2.2 °F -21.5 °F -13.0 °F 60% 30.48 in 10.0 mi WNW 13.8 mph 20.7 mph N/A   Scattered Clouds
1:15 PM -2.2 °F -22.2 °F -13.0 °F 60% 30.47 in 9.0 mi WNW 15.0 mph - N/A   Scattered Clouds
1:35 PM -0.4 °F -19.2 °F -13.0 °F 55% 30.47 in 10.0 mi WNW 13.8 mph - N/A   Mostly Cloudy
1:55 PM -0.4 °F -21.2 °F -13.0 °F 55% 30.46 in 10.0 mi WNW 17.3 mph - N/A   Mostly Cloudy
2:15 PM -0.4 °F -17.6 °F -11.2 °F 60% 30.46 in 10.0 mi WNW 11.5 mph 18.4 mph N/A   Mostly Cloudy
2:35 PM -0.4 °F -19.9 °F -13.0 °F 55% 30.46 in 10.0 mi WNW 15.0 mph - N/A   Mostly Cloudy
2:55 PM -0.4 °F -18.4 °F -11.2 °F 60% 30.46 in 10.0 mi West 12.7 mph 19.6 mph N/A   Mostly Cloudy
3:15 PM -0.4 °F -18.4 °F -11.2 °F 60% 30.46 in 10.0 mi WNW 12.7 mph 21.9 mph N/A   Mostly Cloudy
3:35 PM 1.4 °F -18.2 °F -11.2 °F 56% 30.46 in 10.0 mi WNW 16.1 mph - N/A   Mostly Cloudy
3:55 PM 1.4 °F -13.5 °F -11.2 °F 56% 30.46 in 10.0 mi WNW 9.2 mph 17.3 mph N/A   Scattered Clouds
4:15 PM 1.4 °F -16.1 °F -11.2 °F 56% 30.45 in 10.0 mi West 12.7 mph - N/A   Partly Cloudy
4:35 PM 1.4 °F -11.3 °F -11.2 °F 56% 30.45 in 10.0 mi WNW 6.9 mph 17.3 mph N/A   Clear
4:55 PM 1.4 °F -15.3 °F -11.2 °F 56% 30.45 in 10.0 mi WNW 11.5 mph - N/A   Clear
5:15 PM -0.4 °F -10.4 °F -11.2 °F 60% 30.44 in 10.0 mi West 4.6 mph - N/A   Clear
5:35 PM -0.4 °F -8.3 °F -11.2 °F 60% 30.43 in 10.0 mi West 3.5 mph - N/A   Clear
5:55 PM -2.2 °F - -11.2 °F 66% 30.43 in 10.0 mi Calm Calm - N/A   Clear
6:15 PM -5.8 °F - -13.0 °F 71% 30.43 in 10.0 mi Calm Calm - N/A   Clear
6:35 PM -7.6 °F - -13.0 °F 77% 30.43 in 10.0 mi Calm Calm - N/A   Clear
6:55 PM -7.6 °F -16.5 °F -13.0 °F 77% 30.43 in 10.0 mi South 3.5 mph - N/A   Clear
7:15 PM -9.4 °F -20.9 °F -14.8 °F 77% 30.42 in 10.0 mi SSW 4.6 mph - N/A   Clear
7:35 PM -9.4 °F -18.6 °F -14.8 °F 77% 30.42 in 10.0 mi SSW 3.5 mph - N/A   Clear
7:55 PM -7.6 °F - -14.8 °F 71% 30.42 in 10.0 mi Calm Calm - N/A   Clear
8:15 PM -11.2 °F - -16.6 °F 77% 30.42 in 10.0 mi Calm Calm - N/A   Clear
8:35 PM -11.2 °F -20.6 °F -16.6 °F 77% 30.41 in 10.0 mi South 3.5 mph - N/A   Clear
8:55 PM -11.2 °F -20.6 °F -14.8 °F 84% 30.40 in 10.0 mi SSW 3.5 mph - N/A   Clear
9:15 PM -9.4 °F -20.9 °F -14.8 °F 77% 30.40 in 10.0 mi South 4.6 mph - N/A   Clear
9:35 PM -7.6 °F - -13.0 °F 77% 30.39 in 10.0 mi Calm Calm - N/A   Clear
9:55 PM -7.6 °F - -13.0 °F 77% 30.39 in 10.0 mi Calm Calm - N/A   Clear
10:15 PM -9.4 °F - -14.8 °F 77% 30.38 in 10.0 mi Calm Calm - N/A   Clear
10:35 PM -9.4 °F - -13.0 °F 84% 30.38 in 10.0 mi Calm Calm - N/A   Clear
10:55 PM -7.6 °F -16.5 °F -13.0 °F 77% 30.37 in 10.0 mi South 3.5 mph - N/A   Clear
11:15 PM -7.6 °F - -11.2 °F 84% 30.36 in 10.0 mi Calm Calm - N/A   Clear
11:35 PM -7.6 °F - -13.0 °F 77% 30.36 in 10.0 mi Calm Calm - N/A   Clear
11:55 PM -5.8 °F - -13.0 °F 71% 30.35 in 10.0 mi Calm Calm - N/A   Clear